Content
SEND FEEDBACK

Daily
Averages
Monthly
Summary
Mexico

CANCUN, QUINTANA ROO


Home > North America > Mexico > Quintana Roo
Elevation: 9 meters     Latitude: 21 09N     Longitude: 086 49W

WEATHER
 
SELECT A DAY
Number of Records: 163,654;   Date Range: 1/1/95 - 7/20/14
 
SHARE

PRINT THIS DATA

[ ← Previous Day ]
WEATHER ALMANAC - 21 AUGUST, 2013
[ Next Day → ]
[ °F ]   °C
Weather ElementAverageHighLow
Temperature27.8 °C31 °C (12:43 pm)24 °C (2:40 am)
Dewpoint24.6 °C25 °C (7:44 am)23 °C (2:40 am)
Humidity82.9 %94 % (1:40 am)70 % (12:43 pm)
Barometer1014.6 hPa1015.6 hPa (9:43 am)1012.2 hPa (3:41 pm)
Wind Speed7.1 km/h18.5 km/h (11:46 am)
Weather ElementAverage
Visibility11.1 km
Wind DirectionENE (70 °)

Weather ElementTotal
Precipitation---
Cooling Degree Days9.2 (Base 18.3)
Growing Degree Days17.5 (Base 10)
Averaged from 23 records on 21 August, 2013
WEATHER CONDITIONS BREAKOUT
WIND DIRECTION BREAKOUT
WEATHER BY HOUR - 21 AUGUST, 2013
[ °F ]   °C
Local TimeTemperatureDewpointHumidityBarometerVisibilityWind DirectionWind SpeedGust SpeedPrecipitationEventsConditions
1:40 AM25 °C24 °C94 %1015.2 hPa11.3 kmCalmPartly Cloudy
2:40 AM24 °C23 °C94 %1014.6 hPa11.3 kmNorth (10°)5.6 km/hPartly Cloudy
3:43 AM24 °C23 °C94 %1013.9 hPa11.3 kmWNW (300°)5.6 km/hPartly Cloudy
4:42 AM24 °C23 °C94 %1013.9 hPa11.3 kmNorth (350°)7.4 km/hPartly Cloudy
5:45 AM24 °C23 °C94 %1013.9 hPa11.3 kmNorth (10°)3.7 km/hPartly Cloudy
6:46 AM25 °C24 °C94 %1014.2 hPa11.3 kmNE (40°)3.7 km/hScattered Clouds
7:44 AM28 °C25 °C84 %1014.6 hPa11.3 kmCalmScattered Clouds
8:46 AM29 °C25 °C79 %1014.9 hPa11.3 kmESE (110°)9.3 km/hScattered Clouds
9:43 AM29 °C25 °C79 %1015.6 hPa11.3 kmNE (40°)9.3 km/hMostly Cloudy
10:44 AM30 °C25 °C74 %1015.2 hPa11.3 kmEast (80°)13 km/hMostly Cloudy
11:46 AM30 °C25 °C74 %1015.6 hPa11.3 kmEast (100°)18.5 km/hMostly Cloudy
12:43 PM31 °C25 °C70 %1015.6 hPa9.7 kmENE (70°)16.7 km/hMostly Cloudy
1:47 PM31 °C25 °C70 %1014.6 hPa9.7 kmEast (100°)18.5 km/hMostly Cloudy
2:42 PM31 °C25 °C70 %1014.2 hPa11.3 kmEast (90°)13 km/hMostly Cloudy
3:41 PM31 °C25 °C70 %1012.2 hPa11.3 kmEast (90°)13 km/hMostly Cloudy
4:41 PM30 °C25 °C74 %1012.9 hPa11.3 kmENE (70°)13 km/hMostly Cloudy
5:43 PM30 °C25 °C74 %1012.9 hPa11.3 kmENE (70°)9.3 km/hMostly Cloudy
6:48 PM29 °C25 °C79 %1013.2 hPa11.3 kmEast (80°)3.7 km/hMostly Cloudy
7:40 PM28 °C25 °C84 %1013.9 hPa11.3 kmCalmMostly Cloudy
8:42 PM27 °C25 °C89 %1014.2 hPa11.3 kmCalmMostly Cloudy
9:42 PM27 °C25 °C89 %1014.9 hPa11.3 kmCalmMostly Cloudy
10:45 PM27 °C25 °C89 %1015.6 hPa11.3 kmCalmMostly Cloudy
11:45 PM26 °C25 °C94 %1015.6 hPa11.3 kmCalmMostly Cloudy
Hourly data recorded from MMUN, located 0 kilometers away from Cancun, Quintana Roo







STORIES FROM OUR PARTNERS